When you browse on this site, cookies collect data to enhance your experience and personalize the content and advertising you see.
Visit our Privacy Policy to learn more. By continuing to use the site, you agree to this use of cookies and data.
  • în România
  • Lista ţărilor
  • Pe 7 zile
  • Temperatura apei
  • Hartă satelitară
  • Meteo pe hartă
  • Widget-uri
  • user-avatar
    Intrare

    Meteo pe oră la Solovo

    Astăzi, 20 Februarie, Miercuri

    Timp Temperatura Precipitaţii Vânt Presiune Umiditate
    00:00 0°C° 0 mm 5 m/s 736 mmHg 91%
    01:00 0°C° 0 mm 4 m/s 736 mmHg 92%
    02:00 0°C° 0 mm 4 m/s 736 mmHg 92%
    03:00 0°C° 0.1 mm 4 m/s 735 mmHg 92%
    04:00 0°C° 0.1 mm 4 m/s 735 mmHg 92%
    05:00 0°C° 0.1 mm 4 m/s 735 mmHg 92%
    06:00 0°C° 0.1 mm 4 m/s 735 mmHg 91%
    07:00 0°C° 0.1 mm 4 m/s 735 mmHg 91%
    08:00 0°C° 0.1 mm 4 m/s 734 mmHg 90%
    09:00 0°C° 0.1 mm 4 m/s 734 mmHg 90%
    10:00 0°C° 0.1 mm 5 m/s 734 mmHg 89%
    11:00 0°C° 0.1 mm 5 m/s 734 mmHg 89%
    12:00 +1°C° 0.1 mm 5 m/s 734 mmHg 88%
    13:00 +1°C° 0.1 mm 5 m/s 734 mmHg 88%
    14:00 +1°C° 0.1 mm 5 m/s 733 mmHg 87%
    15:00 +1°C° 0.3 mm 5 m/s 733 mmHg 87%
    16:00 +1°C° 0.3 mm 5 m/s 733 mmHg 87%
    17:00 0°C° 0.3 mm 5 m/s 732 mmHg 87%
    18:00 0°C° 0.4 mm 5 m/s 732 mmHg 84%
    19:00 -1°C° 0.4 mm 5 m/s 732 mmHg 82%
    20:00 -1°C° 0.4 mm 5 m/s 732 mmHg 79%
    21:00 -2°C° 0.1 mm 5 m/s 733 mmHg 80%
    22:00 -4°C° 0.1 mm 5 m/s 733 mmHg 82%
    23:00 -5°C° 0.1 mm 5 m/s 734 mmHg 83%

    Mâine, 21 Februarie, Joi

    Timp Temperatura Precipitaţii Vânt Presiune Umiditate
    00:00 -6°C° 0.1 mm 5 m/s 734 mmHg 81%
    01:00 -6°C° 0.1 mm 6 m/s 735 mmHg 78%
    02:00 -8°C° 0.1 mm 6 m/s 735 mmHg 76%
    03:00 -8°C° 0.1 mm 6 m/s 736 mmHg 74%
    04:00 -8°C° 0.1 mm 6 m/s 736 mmHg 73%
    05:00 -8°C° 0.1 mm 6 m/s 736 mmHg 71%
    06:00 -8°C° 0.1 mm 6 m/s 737 mmHg 73%
    07:00 -9°C° 0.1 mm 7 m/s 737 mmHg 76%
    08:00 -9°C° 0.1 mm 7 m/s 738 mmHg 78%
    09:00 -9°C° 0.1 mm 7 m/s 739 mmHg 75%
    10:00 -8°C° 0.1 mm 7 m/s 739 mmHg 72%
    11:00 -8°C° 0.1 mm 7 m/s 740 mmHg 69%
    12:00 -8°C° 0 mm 7 m/s 741 mmHg 69%
    13:00 -8°C° 0 mm 6 m/s 741 mmHg 68%
    14:00 -8°C° 0 mm 6 m/s 742 mmHg 67%
    15:00 -9°C° 0 mm 6 m/s 743 mmHg 68%
    16:00 -9°C° 0 mm 6 m/s 743 mmHg 68%
    17:00 -10°C° 0 mm 6 m/s 744 mmHg 69%
    18:00 -10°C° 0 mm 5 m/s 745 mmHg 70%
    19:00 -11°C° 0 mm 5 m/s 745 mmHg 70%
    20:00 -12°C° 0 mm 5 m/s 746 mmHg 71%
    21:00 -12°C° 0 mm 5 m/s 746 mmHg 71%
    22:00 -12°C° 0 mm 5 m/s 747 mmHg 71%
    23:00 -13°C° 0 mm 5 m/s 747 mmHg 71%

    Poimâine, 22 Februarie, Vineri

    Timp Temperatura Precipitaţii Vânt Presiune Umiditate
    00:00 -13°C° 0 mm 5 m/s 748 mmHg 71%
    01:00 -13°C° 0 mm 5 m/s 749 mmHg 72%
    02:00 -14°C° 0 mm 5 m/s 749 mmHg 72%
    03:00 -14°C° 0 mm 5 m/s 750 mmHg 72%
    04:00 -14°C° 0 mm 5 m/s 750 mmHg 72%
    05:00 -14°C° 0 mm 5 m/s 750 mmHg 72%
    06:00 -14°C° 0 mm 5 m/s 751 mmHg 72%
    07:00 -14°C° 0 mm 5 m/s 751 mmHg 72%
    08:00 -15°C° 0 mm 6 m/s 752 mmHg 72%
    09:00 -14°C° 0 mm 6 m/s 752 mmHg 69%
    10:00 -12°C° 0 mm 6 m/s 752 mmHg 65%
    11:00 -12°C° 0 mm 7 m/s 753 mmHg 61%
    12:00 -12°C° 0 mm 7 m/s 753 mmHg 59%
    13:00 -12°C° 0 mm 7 m/s 753 mmHg 58%
    14:00 -11°C° 0 mm 7 m/s 753 mmHg 56%
    15:00 -12°C° 0 mm 7 m/s 754 mmHg 58%
    16:00 -11°C° 0 mm 6 m/s 754 mmHg 60%
    17:00 -11°C° 0 mm 5 m/s 754 mmHg 61%
    18:00 -12°C° 0 mm 5 m/s 755 mmHg 65%
    19:00 -12°C° 0 mm 5 m/s 755 mmHg 68%
    20:00 -12°C° 0 mm 5 m/s 756 mmHg 71%
    21:00 -12°C° 0 mm 5 m/s 756 mmHg 72%
    22:00 -13°C° 0 mm 5 m/s 757 mmHg 74%
    23:00 -13°C° 0 mm 5 m/s 757 mmHg 75%

    23 Februarie, Sâmbătă

    Timp Temperatura Precipitaţii Vânt Presiune Umiditate
    00:00 -12°C° 0 mm 4 m/s 757 mmHg 77%
    01:00 -14°C° 0 mm 4 m/s 758 mmHg 79%
    02:00 -14°C° 0 mm 4 m/s 758 mmHg 81%
    03:00 -14°C° 0 mm 4 m/s 758 mmHg 81%
    04:00 -15°C° 0 mm 4 m/s 758 mmHg 81%
    05:00 -15°C° 0 mm 4 m/s 759 mmHg 82%
    06:00 -14°C° 0 mm 3 m/s 759 mmHg 81%
    07:00 -14°C° 0 mm 3 m/s 759 mmHg 80%
    08:00 -14°C° 0 mm 3 m/s 759 mmHg 80%
    09:00 -13°C° 0 mm 3 m/s 759 mmHg 75%
    10:00 -12°C° 0 mm 3 m/s 760 mmHg 69%
    11:00 -10°C° 0 mm 3 m/s 760 mmHg 64%
    12:00 -9°C° 0 mm 3 m/s 759 mmHg 63%
    13:00 -7°C° 0 mm 2 m/s 759 mmHg 61%
    14:00 -7°C° 0 mm 2 m/s 759 mmHg 60%
    15:00 -7°C° 0 mm 2 m/s 759 mmHg 64%
    16:00 -7°C° 0 mm 2 m/s 758 mmHg 68%
    17:00 -6°C° 0 mm 1 m/s 758 mmHg 72%
    18:00 -7°C° 0 mm 2 m/s 758 mmHg 74%
    19:00 -7°C° 0 mm 2 m/s 757 mmHg 75%
    20:00 -7°C° 0 mm 2 m/s 757 mmHg 77%
    21:00 -7°C° 0.2 mm 2 m/s 757 mmHg 81%
    22:00 -7°C° 0.2 mm 2 m/s 756 mmHg 84%
    23:00 -8°C° 0.2 mm 3 m/s 756 mmHg 88%

    24 Februarie, Duminică

    Timp Temperatura Precipitaţii Vânt Presiune Umiditate
    00:00 -7°C° 0.4 mm 3 m/s 755 mmHg 90%
    01:00 -6°C° 0.4 mm 2 m/s 755 mmHg 91%
    02:00 -6°C° 0.4 mm 2 m/s 755 mmHg 92%
    03:00 -6°C° 0.1 mm 2 m/s 754 mmHg 93%
    04:00 -5°C° 0.1 mm 2 m/s 754 mmHg 94%
    05:00 -3°C° 0.1 mm 1 m/s 754 mmHg 95%
    06:00 -3°C° 0 mm 1 m/s 754 mmHg 96%
    07:00 -2°C° 0 mm 1 m/s 754 mmHg 96%
    08:00 -2°C° 0 mm 1 m/s 754 mmHg 96%
    09:00 -1°C° 0 mm 1 m/s 755 mmHg 94%
    10:00 0°C° 0 mm 1 m/s 755 mmHg 93%
    11:00 +1°C° 0 mm 1 m/s 755 mmHg 91%
    12:00 +1°C° 0 mm 1 m/s 755 mmHg 92%
    13:00 +1°C° 0 mm 2 m/s 755 mmHg 92%
    14:00 +1°C° 0 mm 2 m/s 755 mmHg 92%
    15:00 +1°C° 0 mm 2 m/s 755 mmHg 94%
    16:00 +1°C° 0 mm 1 m/s 755 mmHg 95%
    17:00 0°C° 0 mm 1 m/s 755 mmHg 96%
    18:00 0°C° 0 mm 1 m/s 755 mmHg 97%
    19:00 -1°C° 0 mm 1 m/s 755 mmHg 97%
    20:00 -2°C° 0 mm 1 m/s 755 mmHg 97%
    21:00 -2°C° 0 mm 1 m/s 754 mmHg 97%
    22:00 -3°C° 0 mm 2 m/s 754 mmHg 97%
    23:00 -3°C° 0 mm 2 m/s 754 mmHg 96%

    25 Februarie, Luni

    Timp Temperatura Precipitaţii Vânt Presiune Umiditate
    00:00 -3°C° 0 mm 2 m/s 753 mmHg 96%
    01:00 -4°C° 0 mm 3 m/s 753 mmHg 95%
    02:00 -2°C° 0 mm 3 m/s 752 mmHg 94%
    03:00 -2°C° 0 mm 3 m/s 752 mmHg 94%
    04:00 -3°C° 0 mm 4 m/s 751 mmHg 93%
    05:00 -3°C° 0 mm 4 m/s 750 mmHg 93%
    06:00 -2°C° 0.1 mm 4 m/s 750 mmHg 93%
    07:00 -2°C° 0.1 mm 4 m/s 749 mmHg 93%
    08:00 -1°C° 0.1 mm 4 m/s 749 mmHg 94%
    09:00 0°C° 0 mm 3 m/s 749 mmHg 93%
    10:00 0°C° 0 mm 3 m/s 748 mmHg 93%
    11:00 +1°C° 0 mm 3 m/s 748 mmHg 92%
    12:00 0°C° 0.1 mm 4 m/s 748 mmHg 90%
    13:00 0°C° 0.1 mm 4 m/s 747 mmHg 87%
    14:00 0°C° 0.1 mm 4 m/s 747 mmHg 85%
    15:00 -1°C° 0.1 mm 4 m/s 746 mmHg 85%
    16:00 -1°C° 0.1 mm 4 m/s 746 mmHg 85%
    17:00 0°C° 0.1 mm 3 m/s 746 mmHg 85%
    18:00 -1°C° 0 mm 3 m/s 745 mmHg 85%
    19:00 -2°C° 0 mm 4 m/s 745 mmHg 85%
    20:00 -2°C° 0 mm 4 m/s 745 mmHg 85%
    21:00 -2°C° 0.1 mm 4 m/s 745 mmHg 86%
    22:00 -2°C° 0.1 mm 4 m/s 745 mmHg 87%
    23:00 -2°C° 0.1 mm 4 m/s 745 mmHg 88%
    Arată mai mult